Weather History for Dallas Love, TX

Change the Weather History Date:

Monday, May 27, 2013

  Actual Average Record
Temperature  
Mean Temperature 80 °F -  
Max Temperature 88 °F 86 °F 96 °F (2011)
Min Temperature 73 °F 67 °F 63 °F (2003)
Cooling Degree Days 16    
Growing Degree Days 30 (Base 50)    
Moisture  
Dew Point 67 °F    
Average Humidity 64    
Maximum Humidity 79    
Minimum Humidity 48    
Precipitation  
Precipitation 0.00 in - - ()
Sea Level Pressure  
Sea Level Pressure 29.90 in    
Wind  
Wind Speed 14 mph (South)    
Max Wind Speed 22 mph    
Max Gust Speed 28 mph    
Visibility 10 miles    
Events      
Averages and records for this station are not official NWS values.
T = Trace of Precipitation, MM = Missing Value Source: NWS Daily Summary

Daily Weather History Graph

Daily Weather History Graph

Search for Another Location

Airport:

Trip Planner

Search our weather history database for the weather conditions in past years. The results will help you decide how hot, cold, wet, or windy it might be!

Date:

Astronomy

May. 27, 2013 Rise Set
Actual Time 6:21 AM CDT 8:27 PM CDT
Civil Twilight 5:53 AM CDT 8:55 PM CDT
Nautical Twilight 5:19 AM CDT 9:29 PM CDT
Astronomical Twilight 4:43 AM CDT 10:06 PM CDT
Moon 11:11 PM CDT 8:58 AM CDT
Length of Visible Light 15h 02m
Length of Day
14h 06m
Waning Gibbous, 91% of the Moon is Illuminated
May 27
Waning Gibbous
May 31
Last Quarter
Jun 8
New
Jun 16
First Quarter
Jun 23
Full

Hourly Weather History & Observations

Time (CDT) Temp. Heat Index Dew Point Humidity Pressure Visibility Wind Dir Wind Speed Gust Speed Precip Events Conditions
12:53 AM 79.0 °F - 68.0 °F 69% 29.96 in 10.0 mi SSE 12.7 mph - N/A   Mostly Cloudy
1:53 AM 78.1 °F - 68.0 °F 71% 29.95 in 10.0 mi South 12.7 mph - N/A   Overcast
2:53 AM 77.0 °F - 66.9 °F 71% 29.94 in 10.0 mi South 12.7 mph 19.6 mph N/A   Mostly Cloudy
3:53 AM 75.9 °F - 66.0 °F 71% 29.93 in 10.0 mi South 12.7 mph - N/A   Overcast
4:53 AM 75.0 °F - 66.0 °F 73% 29.92 in 10.0 mi South 13.8 mph 21.9 mph N/A   Mostly Cloudy
5:27 AM 73.4 °F - 66.2 °F 78% 29.93 in 10.0 mi South 12.7 mph 24.2 mph N/A   Mostly Cloudy
5:53 AM 73.9 °F - 66.9 °F 79% 29.92 in 10.0 mi South 12.7 mph 20.7 mph N/A   Mostly Cloudy
6:53 AM 73.9 °F - 66.9 °F 79% 29.94 in 10.0 mi South 11.5 mph - N/A   Mostly Cloudy
7:53 AM 75.0 °F - 66.9 °F 76% 29.96 in 10.0 mi South 11.5 mph 21.9 mph N/A   Overcast
8:53 AM 75.9 °F - 66.9 °F 74% 29.96 in 10.0 mi South 18.4 mph 23.0 mph N/A   Overcast
9:53 AM 77.0 °F - 66.0 °F 69% 29.96 in 10.0 mi South 15.0 mph 20.7 mph N/A   Overcast
10:53 AM 79.0 °F - 66.9 °F 66% 29.95 in 10.0 mi South 15.0 mph 19.6 mph N/A   Overcast
11:00 AM 78.8 °F - 66.2 °F 65% 29.97 in 10.0 mi South 17.3 mph 23.0 mph N/A   Overcast
11:53 AM 80.1 °F 82.3 °F 66.9 °F 64% 29.94 in 10.0 mi South 13.8 mph 21.9 mph N/A   Overcast
12:53 PM 82.0 °F 84.5 °F 66.9 °F 60% 29.94 in 10.0 mi South 15.0 mph 23.0 mph N/A   Overcast
1:53 PM 82.9 °F 85.4 °F 66.9 °F 58% 29.91 in 10.0 mi South 18.4 mph 25.3 mph N/A   Overcast
2:53 PM 84.0 °F 86.5 °F 66.9 °F 56% 29.89 in 10.0 mi South 16.1 mph 25.3 mph N/A   Overcast
3:53 PM 86.0 °F 88.8 °F 66.9 °F 53% 29.87 in 10.0 mi South 11.5 mph - N/A   Mostly Cloudy
4:53 PM 87.1 °F 89.2 °F 66.0 °F 49% 29.84 in 10.0 mi South 17.3 mph 26.5 mph N/A   Mostly Cloudy
5:53 PM 88.0 °F 90.3 °F 66.0 °F 48% 29.81 in 10.0 mi South 17.3 mph 20.7 mph N/A   Scattered Clouds
6:53 PM 87.1 °F 89.2 °F 66.0 °F 49% 29.78 in 10.0 mi South 21.9 mph 27.6 mph N/A   Scattered Clouds
7:53 PM 84.9 °F 87.1 °F 66.0 °F 53% 29.79 in 10.0 mi South 13.8 mph - N/A   Mostly Cloudy
8:53 PM 84.0 °F 86.5 °F 66.9 °F 56% 29.80 in 10.0 mi SSE 16.1 mph - N/A   Overcast
9:53 PM 82.9 °F 85.4 °F 66.9 °F 58% 29.81 in 10.0 mi SSE 16.1 mph - N/A   Overcast
10:53 PM 82.0 °F 84.9 °F 68.0 °F 62% 29.84 in 10.0 mi South 15.0 mph 23.0 mph N/A   Mostly Cloudy
11:53 PM 81.0 °F 83.3 °F 66.9 °F 62% 29.83 in 10.0 mi South 17.3 mph - N/A   Overcast